| time (UTC) | temp C | wind direction | speed KPH | gust KPH | rain 1hr cm | rain 24hr cm | rain mn cm | humidity % | barometer mb |
| 20260510220501 | 22 | 274 | 11.3 | 14.5 | 0.00 | 0.00 | 0.00 | 44 | 1016.6 |
| 20260510215508 | 22 | 283 | 4.8 | 19.3 | 0.00 | 0.00 | 0.00 | 43 | 1016.7 |
| 20260510214513 | 23 | 285 | 8.0 | 14.5 | 0.00 | 0.00 | 0.00 | 42 | 1016.5 |
| 20260510213502 | 23 | 271 | 6.4 | 20.9 | 0.00 | 0.00 | 0.00 | 42 | 1016.5 |
| 20260510212510 | 24 | 259 | 8.0 | 24.1 | 0.00 | 0.00 | 0.00 | 41 | 1016.6 |
| 20260510211457 | 24 | 282 | 14.5 | 20.9 | 0.00 | 0.00 | 0.00 | 39 | 1016.5 |
| 20260510210502 | 24 | 291 | 3.2 | 17.7 | 0.00 | 0.00 | 0.00 | 38 | 1016.6 |
| 20260510205528 | 24 | 309 | 3.2 | 19.3 | 0.00 | 0.00 | 0.00 | 39 | 1016.6 |
| 20260510204514 | 24 | 270 | 11.3 | 22.5 | 0.00 | 0.00 | 0.00 | 38 | 1016.7 |
| 20260510203518 | 23 | 296 | 4.8 | 16.1 | 0.00 | 0.00 | 0.00 | 41 | 1016.7 |
| 20260510202504 | 23 | 311 | 12.9 | 22.5 | 0.00 | 0.00 | 0.00 | 39 | 1016.9 |
| 20260510201514 | 23 | 313 | 14.5 | 20.9 | 0.00 | 0.00 | 0.00 | 38 | 1016.9 |
| 20260510200502 | 23 | 355 | 6.4 | 20.9 | 0.00 | 0.00 | 0.00 | 40 | 1016.9 |
| 20260510195514 | 24 | 279 | 14.5 | 24.1 | 0.00 | 0.00 | 0.00 | 39 | 1017.0 |
| 20260510194516 | 24 | 9 | 4.8 | 16.1 | 0.00 | 0.00 | 0.00 | 39 | 1017.0 |
| 20260510193501 | 24 | 298 | 12.9 | 20.9 | 0.00 | 0.00 | 0.00 | 37 | 1017.2 |
| 20260510192529 | 24 | 267 | 17.7 | 25.7 | 0.00 | 0.00 | 0.00 | 35 | 1017.2 |
| 20260510191512 | 24 | 290 | 6.4 | 20.9 | 0.00 | 0.00 | 0.00 | 38 | 1017.2 |
| 20260510190516 | 24 | 276 | 11.3 | 22.5 | 0.00 | 0.00 | 0.00 | 42 | 1017.3 |
| 20260510185523 | 23 | 290 | 14.5 | 17.7 | 0.00 | 0.00 | 0.00 | 39 | 1017.4 |
| 20260510184528 | 23 | 282 | 12.9 | 20.9 | 0.00 | 0.00 | 0.00 | 38 | 1017.4 |
| 20260510183514 | 23 | 314 | 12.9 | 22.5 | 0.00 | 0.00 | 0.00 | 39 | 1017.3 |
| 20260510182500 | 24 | 216 | 12.9 | 22.5 | 0.00 | 0.00 | 0.00 | 40 | 1017.3 |
| 20260510181502 | 23 | 223 | 6.4 | 16.1 | 0.00 | 0.00 | 0.00 | 44 | 1017.5 |
| 20260510180510 | 23 | 246 | 4.8 | 17.7 | 0.00 | 0.00 | 0.00 | 43 | 1017.6 |
| 20260510175501 | 22 | 275 | 9.7 | 16.1 | 0.00 | 0.00 | 0.00 | 43 | 1017.5 |
| 20260510174505 | 23 | 209 | 8.0 | 19.3 | 0.00 | 0.00 | 0.00 | 40 | 1017.7 |
| 20260510173513 | 23 | 309 | 6.4 | 25.7 | 0.00 | 0.00 | 0.00 | 42 | 1017.7 |
| 20260510172459 | 22 | 241 | 16.1 | 24.1 | 0.00 | 0.00 | 0.00 | 44 | 1017.8 |
| 20260510171502 | 22 | 281 | 11.3 | 22.5 | 0.00 | 0.00 | 0.00 | 41 | 1018.1 |
| 20260510170509 | 22 | 265 | 12.9 | 24.1 | 0.00 | 0.00 | 0.00 | 43 | 1018.0 |
| 20260510165454 | 22 | 17 | 8.0 | 20.9 | 0.00 | 0.00 | 0.00 | 42 | 1018.1 |
| 20260510164505 | 22 | 217 | 8.0 | 14.5 | 0.00 | 0.00 | 0.00 | 46 | 1018.0 |
| 20260510163532 | 22 | 262 | 6.4 | 19.3 | 0.00 | 0.00 | 0.00 | 46 | 1018.1 |
| 20260510162459 | 22 | 274 | 9.7 | 16.1 | 0.00 | 0.00 | 0.00 | 46 | 1018.2 |
| 20260510161507 | 22 | 282 | 6.4 | 20.9 | 0.00 | 0.00 | 0.00 | 43 | 1018.3 |
| 20260510160453 | 21 | 309 | 4.8 | 16.1 | 0.00 | 0.00 | 0.00 | 47 | 1018.2 |
| 20260510155503 | 21 | 271 | 4.8 | 12.9 | 0.00 | 0.00 | 0.00 | 53 | 1018.2 |
| 20260510154507 | 21 | 275 | 6.4 | 24.1 | 0.00 | 0.00 | 0.00 | 51 | 1018.3 |
| 20260510153459 | 21 | 309 | 11.3 | 17.7 | 0.00 | 0.00 | 0.00 | 51 | 1018.4 |
| 20260510152507 | 21 | 15 | 8.0 | 14.5 | 0.00 | 0.00 | 0.00 | 50 | 1018.5 |
| 20260510151516 | 21 | 342 | 6.4 | 16.1 | 0.00 | 0.00 | 0.00 | 53 | 1018.5 |
| 20260510150500 | 20 | 311 | 9.7 | 16.1 | 0.00 | 0.00 | 0.00 | 53 | 1018.6 |
| 20260510145505 | 20 | 338 | 9.7 | 16.1 | 0.00 | 0.00 | 0.00 | 52 | 1018.5 |
| 20260510144510 | 20 | 293 | 6.4 | 24.1 | 0.00 | 0.00 | 0.00 | 50 | 1018.5 |
| 20260510143458 | 20 | 298 | 8.0 | 20.9 | 0.00 | 0.00 | 0.00 | 51 | 1018.4 |
| 20260510142524 | 20 | 282 | 9.7 | 17.7 | 0.00 | 0.00 | 0.00 | 54 | 1018.4 |
| 20260510141507 | 19 | 299 | 9.7 | 20.9 | 0.00 | 0.00 | 0.00 | 53 | 1018.4 |
| 20260510140513 | 19 | 289 | 6.4 | 20.9 | 0.00 | 0.00 | 0.00 | 56 | 1018.5 |
| 20260510135457 | 18 | 304 | 12.9 | 17.7 | 0.00 | 0.00 | 0.00 | 57 | 1018.5 |
| 20260510134502 | 18 | 291 | 11.3 | 17.7 | 0.00 | 0.00 | 0.00 | 57 | 1018.6 |
| 20260510133509 | 18 | 322 | 9.7 | 16.1 | 0.00 | 0.00 | 0.00 | 58 | 1017.6 |
| 20260510132457 | 17 | 336 | 12.9 | 17.7 | 0.00 | 0.00 | 0.00 | 60 | 1017.5 |
| 20260510131526 | 17 | 276 | 6.4 | 12.9 | 0.00 | 0.00 | 0.00 | 66 | 1017.6 |
| 20260510130515 | 16 | 284 | 6.4 | 12.9 | 0.00 | 0.00 | 0.00 | 68 | 1017.5 |
| 20260510125501 | 16 | 280 | 8.0 | 16.1 | 0.00 | 0.00 | 0.00 | 69 | 1017.5 |
| 20260510124507 | 15 | 288 | 9.7 | 14.5 | 0.00 | 0.00 | 0.00 | 70 | 1017.3 |
| 20260510123516 | 15 | 269 | 11.3 | 16.1 | 0.00 | 0.00 | 0.00 | 71 | 1017.2 |
| 20260510122504 | 15 | 281 | 8.0 | 17.7 | 0.00 | 0.00 | 0.00 | 73 | 1017.0 |
| 20260510121454 | 14 | 285 | 11.3 | 16.1 | 0.00 | 0.00 | 0.00 | 74 | 1017.0 |
| 20260510120502 | 14 | 288 | 6.4 | 17.7 | 0.00 | 0.00 | 0.00 | 76 | 1016.9 |
| 20260510115455 | 13 | 325 | 9.7 | 16.1 | 0.00 | 0.00 | 0.00 | 77 | 1016.8 |
| 20260510114504 | 13 | 280 | 9.7 | 16.1 | 0.00 | 0.00 | 0.00 | 77 | 1016.7 |
| 20260510113509 | 13 | 294 | 9.7 | 17.7 | 0.00 | 0.00 | 0.00 | 78 | 1016.4 |
| 20260510112516 | 12 | 298 | 9.7 | 14.5 | 0.00 | 0.00 | 0.00 | 80 | 1016.3 |
| 20260510111504 | 12 | 303 | 11.3 | 17.7 | 0.00 | 0.00 | 0.00 | 81 | 1016.0 |
| 20260510110515 | 12 | 308 | 11.3 | 20.9 | 0.00 | 0.00 | 0.00 | 83 | 1015.9 |
| 20260510105503 | 11 | 305 | 9.7 | 19.3 | 0.00 | 0.00 | 0.00 | 84 | 1015.7 |
| 20260510104512 | 11 | 305 | 11.3 | 17.7 | 0.00 | 0.00 | 0.00 | 85 | 1015.7 |
| 20260510103457 | 11 | 299 | 9.7 | 14.5 | 0.00 | 0.00 | 0.00 | 85 | 1015.6 |
| 20260510102503 | 11 | 296 | 8.0 | 16.1 | 0.00 | 0.00 | 0.00 | 85 | 1015.4 |
| 20260510101510 | 11 | 305 | 8.0 | 16.1 | 0.00 | 0.00 | 0.00 | 86 | 1015.2 |
| 20260510100457 | 11 | 294 | 8.0 | 16.1 | 0.00 | 0.00 | 0.00 | 86 | 1015.0 |
| 20260510095527 | 11 | 294 | 8.0 | 14.5 | 0.00 | 0.00 | 0.00 | 85 | 1015.0 |
| 20260510094512 | 11 | 300 | 9.7 | 16.1 | 0.00 | 0.00 | 0.00 | 85 | 1015.0 |
| 20260510093502 | 11 | 326 | 9.7 | 14.5 | 0.00 | 0.00 | 0.00 | 85 | 1015.0 |
| 20260510092510 | 11 | 296 | 6.4 | 9.7 | 0.00 | 0.00 | 0.00 | 86 | 1014.9 |
| 20260510091518 | 11 | 309 | 8.0 | 11.3 | 0.00 | 0.00 | 0.00 | 85 | 1014.8 |
| 20260510090503 | 11 | 288 | 4.8 | 8.0 | 0.00 | 0.00 | 0.00 | 84 | 1014.6 |
| 20260510085532 | 11 | 286 | 6.4 | 11.3 | 0.00 | 0.00 | 0.00 | 84 | 1014.5 |
| 20260510084458 | 11 | 273 | 6.4 | 8.0 | 0.00 | 0.00 | 0.00 | 84 | 1014.5 |
| 20260510083509 | 11 | 275 | 4.8 | 6.4 | 0.00 | 0.00 | 0.00 | 83 | 1014.4 |
| 20260510082518 | 12 | 282 | 3.2 | 11.3 | 0.00 | 0.00 | 0.00 | 82 | 1014.3 |
| 20260510081504 | 12 | 282 | 8.0 | 14.5 | 0.00 | 0.00 | 0.00 | 82 | 1014.1 |
| 20260510080510 | 12 | 302 | 12.9 | 16.1 | 0.00 | 0.00 | 0.00 | 83 | 1014.1 |
| 20260510075516 | 12 | 307 | 9.7 | 14.5 | 0.00 | 0.00 | 0.00 | 82 | 1014.0 |
| 20260510074524 | 12 | 298 | 9.7 | 11.3 | 0.00 | 0.00 | 0.00 | 82 | 1014.1 |
| 20260510073513 | 12 | 284 | 4.8 | 6.4 | 0.00 | 0.00 | 0.00 | 82 | 1014.1 |
| 20260510072500 | 12 | 283 | 4.8 | 6.4 | 0.00 | 0.00 | 0.00 | 82 | 1014.2 |
| 20260510071506 | 12 | 281 | 3.2 | 8.0 | 0.00 | 0.00 | 0.00 | 82 | 1014.1 |
| 20260510070538 | 12 | 284 | 4.8 | 9.7 | 0.00 | 0.00 | 0.00 | 80 | 1014.1 |
| 20260510065503 | 12 | 281 | 4.8 | 12.9 | 0.00 | 0.00 | 0.00 | 80 | 1014.2 |
| 20260510064513 | 12 | 281 | 6.4 | 11.3 | 0.00 | 0.00 | 0.00 | 81 | 1014.2 |
| 20260510063500 | 11 | 292 | 6.4 | 9.7 | 0.00 | 0.00 | 0.00 | 83 | 1014.3 |
| 20260510062506 | 11 | 288 | 4.8 | 8.0 | 0.00 | 0.00 | 0.00 | 82 | 1014.3 |
| 20260510061454 | 11 | 288 | 4.8 | 8.0 | 0.00 | 0.00 | 0.00 | 82 | 1014.5 |
| 20260510060522 | 11 | 297 | 4.8 | 8.0 | 0.00 | 0.00 | 0.00 | 82 | 1014.5 |
| 20260510055506 | 11 | 302 | 6.4 | 8.0 | 0.00 | 0.00 | 0.00 | 81 | 1014.5 |
| 20260510054515 | 11 | 275 | 3.2 | 6.4 | 0.00 | 0.00 | 0.00 | 81 | 1014.5 |
| 20260510053502 | 11 | 274 | 0.0 | 0.0 | 0.00 | 0.00 | 0.00 | 81 | 1014.4 |
| 20260510052506 | 12 | 274 | 0.0 | 3.2 | 0.00 | 0.00 | 0.00 | 79 | 1014.4 |
| 20260510051513 | 12 | 279 | 3.2 | 8.0 | 0.00 | 0.00 | 0.00 | 77 | 1014.4 |
| 20260510050501 | 12 | 279 | 6.4 | 11.3 | 0.00 | 0.00 | 0.00 | 78 | 1014.4 |
| 20260510045507 | 11 | 265 | 8.0 | 11.3 | 0.00 | 0.00 | 0.00 | 80 | 1014.4 |
| 20260510044514 | 12 | 255 | 4.8 | 9.7 | 0.00 | 0.00 | 0.00 | 77 | 1014.3 |
| 20260510043503 | 12 | 263 | 6.4 | 9.7 | 0.00 | 0.00 | 0.00 | 78 | 1014.3 |
| 20260510042455 | 13 | 267 | 3.2 | 4.8 | 0.00 | 0.00 | 0.00 | 73 | 1014.3 |
| 20260510041504 | 13 | 281 | 1.6 | 8.0 | 0.00 | 0.00 | 0.00 | 73 | 1014.3 |
| 20260510040509 | 13 | 283 | 4.8 | 11.3 | 0.00 | 0.00 | 0.00 | 72 | 1014.3 |
| 20260510035500 | 13 | 280 | 6.4 | 11.3 | 0.00 | 0.00 | 0.00 | 73 | 1014.3 |
| 20260510034524 | 13 | 284 | 4.8 | 8.0 | 0.00 | 0.00 | 0.00 | 74 | 1014.5 |
| 20260510033511 | 13 | 286 | 4.8 | 9.7 | 0.00 | 0.00 | 0.00 | 75 | 1014.5 |
| 20260510032502 | 12 | 283 | 4.8 | 6.4 | 0.00 | 0.00 | 0.00 | 76 | 1014.5 |
| 20260510031511 | 13 | 284 | 4.8 | 8.0 | 0.00 | 0.00 | 0.00 | 72 | 1014.3 |
| 20260510030457 | 13 | 285 | 3.2 | 6.4 | 0.00 | 0.00 | 0.00 | 72 | 1014.3 |
| 20260510025502 | 13 | 285 | 3.2 | 6.4 | 0.00 | 0.00 | 0.00 | 73 | 1014.3 |
| 20260510024531 | 12 | 286 | 6.4 | 8.0 | 0.00 | 0.00 | 0.00 | 75 | 1014.1 |
| 20260510023459 | 13 | 287 | 3.2 | 6.4 | 0.00 | 0.00 | 0.00 | 74 | 1014.1 |
| 20260510022505 | 13 | 288 | 3.2 | 8.0 | 0.00 | 0.00 | 0.00 | 73 | 1013.9 |
| 20260510021532 | 14 | 305 | 4.8 | 6.4 | 0.00 | 0.00 | 0.00 | 70 | 1013.8 |
| 20260510020500 | 13 | 305 | 0.0 | 0.0 | 0.00 | 0.00 | 0.00 | 72 | 1013.8 |
| 20260510015512 | 13 | 305 | 0.0 | 0.0 | 0.00 | 0.00 | 0.00 | 72 | 1013.7 |
| 20260510014500 | 13 | 305 | 3.2 | 6.4 | 0.00 | 0.00 | 0.00 | 72 | 1013.6 |
| 20260510013504 | 15 | 305 | 6.4 | 8.0 | 0.00 | 0.00 | 0.00 | 68 | 1013.5 |
| 20260510012512 | 16 | 309 | 3.2 | 4.8 | 0.00 | 0.00 | 0.00 | 63 | 1013.1 |
| 20260510011500 | 16 | 309 | 1.6 | 3.2 | 0.00 | 0.00 | 0.00 | 63 | 1012.9 |
| 20260510010505 | 16 | 309 | 0.0 | 4.8 | 0.00 | 0.00 | 0.00 | 62 | 1012.7 |
| 20260510005512 | 16 | 309 | 1.6 | 4.8 | 0.00 | 0.00 | 0.00 | 61 | 1012.6 |
| 20260510004520 | 16 | 309 | 3.2 | 4.8 | 0.00 | 0.00 | 0.00 | 60 | 1012.4 |
| 20260510003507 | 17 | 309 | 0.0 | 9.7 | 0.00 | 0.00 | 0.00 | 60 | 1012.2 |
| 20260510002515 | 17 | 292 | 1.6 | 9.7 | 0.00 | 0.00 | 0.00 | 59 | 1012.1 |
| 20260510001505 | 17 | 294 | 4.8 | 9.7 | 0.00 | 0.00 | 0.00 | 57 | 1012.0 |
| 20260510000513 | 17 | 286 | 4.8 | 9.7 | 0.00 | 0.00 | 0.00 | 56 | 1012.1 |
| 20260509235459 | 18 | 288 | 9.7 | 14.5 | 0.00 | 0.00 | 0.00 | 55 | 1012.1 |
| 20260509234531 | 18 | 265 | 9.7 | 17.7 | 0.00 | 0.00 | 0.00 | 54 | 1012.0 |
| 20260509233459 | 18 | 275 | 14.5 | 20.9 | 0.00 | 0.00 | 0.00 | 53 | 1012.0 |
| 20260509232511 | 18 | 259 | 16.1 | 29.0 | 0.00 | 0.00 | 0.00 | 52 | 1011.9 |
| 20260509231459 | 19 | 283 | 14.5 | 25.7 | 0.00 | 0.00 | 0.00 | 54 | 1012.0 |
| 20260509230525 | 20 | 292 | 9.7 | 24.1 | 0.00 | 0.00 | 0.00 | 53 | 1011.8 |
| 20260509225510 | 20 | 274 | 8.0 | 22.5 | 0.00 | 0.00 | 0.00 | 55 | 1011.5 |
| 20260509224459 | 20 | 267 | 11.3 | 24.1 | 0.00 | 0.00 | 0.00 | 53 | 1011.5 |
| 20260509223506 | 20 | 289 | 14.5 | 27.4 | 0.00 | 0.00 | 0.00 | 52 | 1011.4 |
| 20260509222514 | 20 | 302 | 12.9 | 25.7 | 0.00 | 0.00 | 0.00 | 52 | 1011.5 |
| 20260509221459 | 20 | 284 | 16.1 | 29.0 | 0.00 | 0.00 | 0.00 | 53 | 1011.4 |